• In Belgium
  • List of Countries
  • For 7 days
  • Water Temperature
  • Satellite Maps
  • Weather Map
  • Weather Widgets
  • user-avatar
    Login

    Hourly Weather Biskira

    Today, 19 September, Wednesday

    Time Temperature Precipitation Wind Pressure Humidity
    00:00 +30°C° 0 mm 2 mps 755 mmHg 43%
    01:00 +29°C° 0 mm 1 mps 754 mmHg 44%
    02:00 +29°C° 0 mm 1 mps 754 mmHg 45%
    03:00 +29°C° 0 mm 1 mps 754 mmHg 45%
    04:00 +29°C° 0 mm 1 mps 754 mmHg 46%
    05:00 +29°C° 0 mm 1 mps 754 mmHg 46%
    06:00 +29°C° 0 mm 1 mps 754 mmHg 46%
    07:00 +30°C° 0 mm 1 mps 754 mmHg 41%
    08:00 +31°C° 0 mm 1 mps 754 mmHg 37%
    09:00 +32°C° 0 mm 1 mps 754 mmHg 33%
    10:00 +33°C° 0 mm 1 mps 754 mmHg 31%
    11:00 +35°C° 0 mm 2 mps 754 mmHg 30%
    12:00 +36°C° 0 mm 2 mps 754 mmHg 28%
    13:00 +36°C° 0 mm 2 mps 754 mmHg 27%
    14:00 +37°C° 0 mm 2 mps 753 mmHg 26%
    15:00 +37°C° 0 mm 3 mps 753 mmHg 26%
    16:00 +37°C° 0.1 mm 2 mps 753 mmHg 27%
    17:00 +36°C° 0.1 mm 2 mps 753 mmHg 28%
    18:00 +36°C° 0.1 mm 2 mps 753 mmHg 29%
    19:00 +35°C° 0.1 mm 2 mps 753 mmHg 31%
    20:00 +34°C° 0.1 mm 1 mps 754 mmHg 33%
    21:00 +33°C° 0.1 mm 1 mps 754 mmHg 36%
    22:00 +33°C° 0.1 mm 1 mps 754 mmHg 37%
    23:00 +32°C° 0.1 mm 1 mps 754 mmHg 38%

    Tomorrow, 20 September, Thursday

    Time Temperature Precipitation Wind Pressure Humidity
    00:00 +32°C° 0.1 mm 1 mps 754 mmHg 39%
    01:00 +31°C° 0 mm 1 mps 753 mmHg 41%
    02:00 +31°C° 0 mm 1 mps 753 mmHg 42%
    03:00 +30°C° 0 mm 1 mps 753 mmHg 43%
    04:00 +30°C° 0 mm 1 mps 753 mmHg 44%
    05:00 +30°C° 0 mm 1 mps 753 mmHg 44%
    06:00 +30°C° 0 mm 1 mps 753 mmHg 45%
    07:00 +31°C° 0 mm 1 mps 753 mmHg 41%
    08:00 +32°C° 0 mm 2 mps 753 mmHg 37%
    09:00 +35°C° 0 mm 2 mps 753 mmHg 34%
    10:00 +35°C° 0 mm 2 mps 753 mmHg 31%
    11:00 +36°C° 0 mm 3 mps 753 mmHg 29%
    12:00 +37°C° 0 mm 3 mps 752 mmHg 27%
    13:00 +37°C° 0 mm 3 mps 752 mmHg 26%
    14:00 +37°C° 0 mm 4 mps 752 mmHg 24%
    15:00 +37°C° 0 mm 4 mps 751 mmHg 23%
    16:00 +37°C° 0 mm 4 mps 751 mmHg 24%
    17:00 +36°C° 0 mm 4 mps 751 mmHg 25%
    18:00 +36°C° 0 mm 4 mps 751 mmHg 26%
    19:00 +35°C° 0 mm 3 mps 751 mmHg 28%
    20:00 +34°C° 0 mm 3 mps 752 mmHg 30%
    21:00 +34°C° 0 mm 3 mps 752 mmHg 31%
    22:00 +33°C° 0.1 mm 3 mps 752 mmHg 35%
    23:00 +33°C° 0.1 mm 3 mps 752 mmHg 38%

    Day after tomorrow, 21 September, Friday

    Time Temperature Precipitation Wind Pressure Humidity
    00:00 +31°C° 0.1 mm 3 mps 752 mmHg 41%
    01:00 +30°C° 0 mm 3 mps 752 mmHg 44%
    02:00 +30°C° 0 mm 3 mps 751 mmHg 46%
    03:00 +29°C° 0 mm 3 mps 751 mmHg 49%
    04:00 +29°C° 0 mm 2 mps 751 mmHg 51%
    05:00 +29°C° 0 mm 2 mps 752 mmHg 52%
    06:00 +28°C° 0 mm 2 mps 752 mmHg 54%
    07:00 +29°C° 0 mm 2 mps 752 mmHg 51%
    08:00 +30°C° 0 mm 2 mps 753 mmHg 47%
    09:00 +31°C° 0 mm 2 mps 753 mmHg 44%
    10:00 +32°C° 0 mm 2 mps 753 mmHg 41%
    11:00 +34°C° 0 mm 2 mps 753 mmHg 38%
    12:00 +34°C° 0 mm 2 mps 752 mmHg 35%
    13:00 +35°C° 0 mm 2 mps 752 mmHg 33%
    14:00 +35°C° 0 mm 3 mps 752 mmHg 31%
    15:00 +36°C° 0 mm 3 mps 751 mmHg 29%
    16:00 +35°C° 0 mm 3 mps 751 mmHg 29%
    17:00 +35°C° 0 mm 2 mps 752 mmHg 30%
    18:00 +35°C° 0 mm 2 mps 752 mmHg 30%
    19:00 +34°C° 0 mm 2 mps 752 mmHg 31%
    20:00 +34°C° 0 mm 2 mps 753 mmHg 33%
    21:00 +33°C° 0 mm 3 mps 753 mmHg 34%
    22:00 +33°C° 0 mm 3 mps 753 mmHg 37%
    23:00 +31°C° 0 mm 3 mps 753 mmHg 39%

    22 September, Saturday

    Time Temperature Precipitation Wind Pressure Humidity
    00:00 +30°C° 0 mm 4 mps 753 mmHg 42%
    01:00 +30°C° 0 mm 3 mps 753 mmHg 44%
    02:00 +29°C° 0 mm 3 mps 753 mmHg 47%
    03:00 +29°C° 0 mm 3 mps 753 mmHg 49%
    04:00 +29°C° 0 mm 3 mps 754 mmHg 50%
    05:00 +28°C° 0 mm 3 mps 754 mmHg 51%
    06:00 +28°C° 0 mm 3 mps 754 mmHg 52%
    07:00 +29°C° 0 mm 3 mps 755 mmHg 49%
    08:00 +30°C° 0 mm 3 mps 755 mmHg 46%
    09:00 +31°C° 0 mm 2 mps 756 mmHg 43%
    10:00 +32°C° 0 mm 2 mps 756 mmHg 40%
    11:00 +34°C° 0 mm 2 mps 755 mmHg 37%
    12:00 +34°C° 0 mm 2 mps 755 mmHg 34%
    13:00 +35°C° 0 mm 2 mps 755 mmHg 32%
    14:00 +35°C° 0 mm 2 mps 755 mmHg 31%
    15:00 +35°C° 0 mm 2 mps 754 mmHg 30%
    16:00 +35°C° 0 mm 2 mps 755 mmHg 31%
    17:00 +35°C° 0 mm 2 mps 755 mmHg 32%
    18:00 +34°C° 0 mm 3 mps 755 mmHg 33%
    19:00 +34°C° 0 mm 3 mps 756 mmHg 35%
    20:00 +33°C° 0 mm 3 mps 756 mmHg 37%
    21:00 +33°C° 0 mm 3 mps 757 mmHg 39%
    22:00 +31°C° 0 mm 3 mps 757 mmHg 41%
    23:00 +31°C° 0 mm 3 mps 756 mmHg 43%

    23 September, Sunday

    Time Temperature Precipitation Wind Pressure Humidity
    00:00 +30°C° 0 mm 3 mps 756 mmHg 45%
    01:00 +30°C° 0 mm 3 mps 756 mmHg 46%
    02:00 +29°C° 0 mm 3 mps 756 mmHg 46%
    03:00 +29°C° 0 mm 3 mps 756 mmHg 47%
    04:00 +29°C° 0 mm 2 mps 756 mmHg 47%
    05:00 +28°C° 0 mm 2 mps 756 mmHg 47%
    06:00 +28°C° 0 mm 2 mps 757 mmHg 46%
    07:00 +29°C° 0 mm 2 mps 757 mmHg 44%
    08:00 +30°C° 0 mm 2 mps 757 mmHg 41%
    09:00 +31°C° 0 mm 2 mps 757 mmHg 38%
    10:00 +32°C° 0 mm 2 mps 757 mmHg 37%
    11:00 +32°C° 0 mm 2 mps 757 mmHg 36%
    12:00 +34°C° 0 mm 2 mps 756 mmHg 35%
    13:00 +34°C° 0 mm 2 mps 756 mmHg 34%
    14:00 +35°C° 0 mm 2 mps 756 mmHg 32%
    15:00 +35°C° 0 mm 2 mps 755 mmHg 31%
    16:00 +35°C° 0 mm 2 mps 755 mmHg 32%
    17:00 +35°C° 0 mm 2 mps 756 mmHg 32%
    18:00 +35°C° 0 mm 2 mps 756 mmHg 33%
    19:00 +34°C° 0 mm 2 mps 756 mmHg 34%
    20:00 +33°C° 0 mm 1 mps 756 mmHg 36%
    21:00 +32°C° 0 mm 1 mps 756 mmHg 38%
    22:00 +32°C° 0 mm 1 mps 756 mmHg 39%
    23:00 +31°C° 0 mm 1 mps 756 mmHg 41%

    24 September, Monday

    Time Temperature Precipitation Wind Pressure Humidity
    00:00 +31°C° 0 mm 1 mps 756 mmHg 42%
    01:00 +30°C° 0 mm 1 mps 756 mmHg 43%
    02:00 +28°C° 0 mm 0 mps 755 mmHg 44%
    03:00 +27°C° 0 mm 0 mps 755 mmHg 44%
    04:00 +27°C° 0 mm 0 mps 755 mmHg 45%
    05:00 +29°C° 0 mm 1 mps 755 mmHg 46%
    06:00 +29°C° 0 mm 1 mps 755 mmHg 47%
    07:00 +30°C° 0 mm 1 mps 756 mmHg 44%
    08:00 +31°C° 0 mm 1 mps 756 mmHg 42%
    09:00 +32°C° 0 mm 2 mps 756 mmHg 39%
    10:00 +34°C° 0 mm 2 mps 756 mmHg 37%
    11:00 +33°C° 0 mm 1 mps 755 mmHg 34%
    12:00 +34°C° 0 mm 1 mps 755 mmHg 32%
    13:00 +35°C° 0 mm 1 mps 755 mmHg 29%
    14:00 +36°C° 0 mm 2 mps 754 mmHg 27%
    15:00 +37°C° 0 mm 2 mps 754 mmHg 25%
    16:00 +36°C° 0 mm 2 mps 754 mmHg 25%
    17:00 +36°C° 0 mm 2 mps 754 mmHg 26%
    18:00 +36°C° 0 mm 2 mps 754 mmHg 26%
    19:00 +35°C° 0 mm 2 mps 754 mmHg 28%
    20:00 +34°C° 0 mm 2 mps 754 mmHg 30%
    21:00 +34°C° 0 mm 2 mps 755 mmHg 32%
    22:00 +32°C° 0 mm 2 mps 755 mmHg 34%
    23:00 +32°C° 0 mm 2 mps 755 mmHg 35%
    Show more